Weather History for Blue Canyon, CA

Change the Weather History Date:

Sunday, September 23, 2012

  Actual Average Record
Temperature  
Mean Temperature 64 °F -  
Max Temperature 72 °F 70 °F 84 °F (1949)
Min Temperature 57 °F 51 °F 38 °F (1948)
Growing Degree Days 14 (Base 50)    
Moisture  
Dew Point 40 °F    
Average Humidity 39    
Maximum Humidity 51    
Minimum Humidity 31    
Precipitation  
Precipitation 0.00 in - - ()
Sea Level Pressure  
Sea Level Pressure 29.92 in    
Wind  
Wind Speed 4 mph (South)    
Max Wind Speed 14 mph    
Max Gust Speed 24 mph    
Visibility 10 miles    
Events      
Averages and records for this station are not official NWS values.
T = Trace of Precipitation, MM = Missing Value Source: NWS Daily Summary

Daily Weather History Graph

Daily Weather History Graph

Search for Another Location

Airport:

Trip Planner

Search our weather history database for the weather conditions in past years. The results will help you decide how hot, cold, wet, or windy it might be!

Date:

Astronomy

Sep. 23, 2012 Rise Set
Actual Time 6:51 AM PDT 6:57 PM PDT
Civil Twilight 6:25 AM PDT 7:24 PM PDT
Nautical Twilight 5:53 AM PDT 7:55 PM PDT
Astronomical Twilight 5:22 AM PDT 8:26 PM PDT
Moon 3:00 PM PDT (9/23) 12:11 AM PDT (9/23)
Length of Visible Light 12h 58m
Length of Day
12h 05m
First Quarter, 61% of the Moon is Illuminated
Sep 23
First Quarter
Sep 29
Full
Oct 8
Last Quarter
Oct 15
New
Oct 21
First Quarter

Hourly Weather History & Observations

Time (PDT) Temp. Dew Point Humidity Pressure Visibility Wind Dir Wind Speed Gust Speed Precip Events Conditions
12:52 AM 64.9 °F 37.9 °F 37% 29.90 in 10.0 mi Calm Calm - N/A   Clear
1:52 AM 64.9 °F 37.9 °F 37% 29.90 in 10.0 mi Calm Calm - N/A   Clear
2:52 AM 64.0 °F 37.9 °F 38% 29.88 in 10.0 mi Calm Calm - N/A   Clear
3:52 AM 64.0 °F 37.0 °F 37% 29.88 in 10.0 mi Calm Calm - N/A   Clear
4:52 AM 64.9 °F 37.0 °F 36% 29.88 in 10.0 mi Calm Calm - N/A   Clear
5:52 AM 64.9 °F 37.9 °F 37% 29.88 in 10.0 mi Calm Calm - N/A   Clear
6:52 AM 64.0 °F 37.9 °F 38% 29.91 in 10.0 mi SE 3.5 mph - N/A   Clear
7:52 AM 64.0 °F 39.0 °F 40% 29.94 in 10.0 mi SE 3.5 mph - N/A   Clear
8:52 AM 64.0 °F 41.0 °F 43% 29.96 in 10.0 mi SSE 3.5 mph - N/A   Clear
9:52 AM 64.9 °F 41.0 °F 42% 29.96 in 10.0 mi SSE 6.9 mph - N/A   Clear
10:52 AM 66.0 °F 42.1 °F 42% 29.96 in 10.0 mi South 5.8 mph - N/A   Clear
11:52 AM 66.9 °F 43.0 °F 42% 29.95 in 10.0 mi South 9.2 mph - N/A   Clear
12:52 PM 69.1 °F 43.0 °F 39% 29.95 in 10.0 mi South 10.4 mph - N/A   Clear
1:52 PM 70.0 °F 41.0 °F 35% 29.93 in 10.0 mi South 13.8 mph 20.7 mph N/A   Clear
2:52 PM 71.1 °F 39.9 °F 32% 29.91 in 10.0 mi South 13.8 mph 24.2 mph N/A   Clear
3:52 PM 72.0 °F 39.9 °F 31% 29.90 in 10.0 mi South 11.5 mph 18.4 mph N/A   Clear
4:52 PM 71.1 °F 39.0 °F 31% 29.89 in 10.0 mi South 12.7 mph 20.7 mph N/A   Clear
5:52 PM 69.1 °F 39.0 °F 33% 29.89 in 10.0 mi SSW 10.4 mph 18.4 mph N/A   Clear
6:52 PM 64.9 °F 41.0 °F 42% 29.91 in 10.0 mi SW 5.8 mph - N/A   Clear
7:52 PM 63.0 °F 41.0 °F 45% 29.92 in 10.0 mi SSW 5.8 mph - N/A   Clear
8:52 PM 61.0 °F 41.0 °F 48% 29.94 in 10.0 mi South 5.8 mph - N/A   Clear
9:52 PM 59.0 °F 41.0 °F 51% 29.93 in 10.0 mi SE 5.8 mph - N/A   Partly Cloudy
10:52 PM 57.9 °F 39.0 °F 49% 29.93 in 10.0 mi SE 4.6 mph - N/A   Clear
11:52 PM 59.0 °F 35.1 °F 41% 29.90 in 10.0 mi SE 6.9 mph - N/A   Clear